Regional Weather Roundup
Issued by NWS

Home | Current Version | Previous Version | Graphics & Text | Print | Product List | Glossary Off
Versions: 1 2 3 4 5 6 7 8 9 10 11 12 13 14 15 16 17 18 19 20 21 22 23 24 25 26 27 28 29 30 31 32 33 34 35 36 37 38 39 40 41 42 43 44 45 46 47 48 49 50

000
ASUS43 KMPX 300001
RWRMN
WEATHER ROUNDUP FOR MINNESOTA
NATIONAL WEATHER SERVICE TWIN CITIES/CHANHASSEN MN
700 PM CDT FRI MAY 29 2015


NOTE: "FAIR" INDICATES FEW OR NO CLOUDS BELOW 12,000 FEET WITH NO
SIGNIFICANT WEATHER AND/OR OBSTRUCTIONS TO VISIBILITY. N/A MEANS
CURRENT SKY AND/OR WEATHER CONDITIONS ARE NOT AVAILABLE.

MNZ060>063-068>070-300100-
   Twin Cities Metro

CITY           SKY/WX    TMP DP  RH WIND       PRES   REMARKS
TWIN CITIES    LGT RAIN  62  59  90 N14       29.92R
6HR MIN TEMP:  62; 6HR MAX TEMP:  71; 6HR PCP:  0.18;

ST PAUL        LGT RAIN  62  60  93 N9G20     29.92R
CRYSTAL        LGT RAIN  59  56  89 N16       29.93R
BLAINE         LGT RAIN  61  59  94 N18       29.94R
LAKEVILLE      RAIN      63  61  94 N9        29.91R
EDEN PRAIRIE   LGT RAIN  60  58  92 N16G23    29.92R
6HR MIN TEMP:  60; 6HR MAX TEMP:  71; 6HR PCP:  0.32;

SOUTH ST PAUL  LGT RAIN  63  61  93 N12       29.92R
LAKE ELMO      RAIN      63  61  94 N12G20    29.92S
$$
MNZ001>005-007-008-013>017-022>024-027-028-300100-
   Northwest Minnesota

CITY           SKY/WX    TMP DP  RH WIND       PRES   REMARKS
BEMIDJI        PTSUNNY   55  40  57 N12       30.11R
HALLOCK        SUNNY     52  30  43 N22       30.22S
ROSEAU         SUNNY     52  36  54 N22       30.18R
WARROAD        SUNNY     52  36  54 NW15G26   30.17R
THIEF RVR FALL SUNNY     52  34  50 N23       30.18R
CROOKSTON      MOSUNNY   54  36  50 N22G31    30.19R
FOSSTON        MOSUNNY   54  41  62 NW20      30.15R
DETROIT LAKES  PTSUNNY   52  41  66 N14G28    30.12S
MOORHEAD       PTSUNNY   55  41  58 N22G28    30.15S
PARK RAPIDS    PTSUNNY   57  39  51 N14G23    30.07S
MAHNOMEN       FAIR      53  41  63 N20       30.13R
$$
MNZ006-009>011-018-025>026-300100-
   North Central Minnesota

CITY           SKY/WX    TMP DP  RH WIND       PRES   REMARKS
FLAG ISLAND    MOSUNNY   52  36  54 N18       30.15R
INTL FALLS     CLOUDY    51  39  63 N13       30.11R
6HR MIN TEMP:  50; 6HR MAX TEMP:  55;

WASKISH        MOSUNNY   54  39  58 NW8G20    30.13R
BIG FORK       PTSUNNY   55  39  54 N10G20    30.09R
LONGVILLE      CLOUDY    54  43  66 N10G17    30.06R
GRAND RAPIDS   CLOUDY    54  41  62 NW14      30.05S
CRANE LAKE     CLOUDY    50  45  81 NW8       30.09R
ORR            CLOUDY    50  39  66 NW7       30.06R
COOK           CLOUDY    50  43  76 N10G18    30.07S
WALKER         FAIR      54  40  60 N10G20    30.08S
$$
MNZ012-019>021-037-300100-
   Northeast Minnesota

CITY           SKY/WX    TMP DP  RH WIND       PRES   REMARKS
DULUTH         CLOUDY    53  46  77 N17G28    29.99R
6HR MIN TEMP:  53; 6HR MAX TEMP:  64; 6HR PCP: TRACE;

HIBBING        CLOUDY    54  43  66 N15       30.04R
EVELETH        CLOUDY    52  43  71 N7        30.04S
DULUTH HARBOR  CLOUDY    55  52  88 N12       30.01R
TWO HARBORS    CLOUDY    57  50  77 N6        29.98R
SILVER BAY     CLOUDY    55  48  76 NW8G23    29.97R
GRAND MARAIS     N/A     59  49  69 W6        29.94R
G MARAIS ARPRT CLOUDY    54  46  76 NW12G21   29.97S
$$
MNZ029>031-032-039>041-046>048-054>057-064-300100-
   West Central Minnesota

CITY           SKY/WX    TMP DP  RH WIND       PRES   REMARKS
FERGUS FALLS   CLOUDY    54  43  66 N15G29    30.11R
WHEATON        CLOUDY    48  41  76 N16G25    30.13S
MORRIS         CLOUDY    54  45  71 N23G29    30.07R
ALEXANDRIA     CLOUDY    54  45  71 N14       30.06R
ELBOW LAKE     FAIR      51  44  75 N17G25    30.08S
WADENA         CLOUDY    54  43  66 N10G17    30.06S
GLENWOOD       CLOUDY    55  46  71 N17       30.04S
APPLETON       PTSUNNY   54  46  76 N20G26    30.07R
BENSON         CLOUDY    54  45  71 N15G25    30.05R
ORTONVILLE     CLOUDY    50  43  76 N20G29    30.10R
MADISON        CLOUDY    52  45  76 N24       30.08R
WILLMAR        FAIR      55  50  82 N21       30.03R
$$
MNZ033>034-036-042>043-049>051-058-059-300100-
   Central Minnesota

CITY           SKY/WX    TMP DP  RH WIND       PRES   REMARKS
ST CLOUD       CLOUDY    53  49  86 N14G20    30.01R
6HR MIN TEMP:  53; 6HR MAX TEMP:  62; 6HR PCP:  0.17;

SAUK CENTRE    FAIR      53  45  74 N14G26    30.04R
PAYNESVILLE    CLOUDY    51  48  89 NW10G18   30.02R
AITKIN         CLOUDY    54  45  71 N12G18    30.02S
PINE RIVER     CLOUDY    54  45  71 N9G17     30.09R
BRAINERD       CLOUDY    53  44  71 N13       30.04S
STAPLES        CLOUDY    54  43  66 N12G17    30.06S
LONG PRAIRIE   FAIR      52  45  76 NW14G21   30.05R
LITTLE FALLS   CLOUDY    52  43  71 N7        30.03S
LITCHFIELD     LGT RAIN  55  54  94 N8        30.00R
BUFFALO        DRIZZLE   55  51  87 N10G20    29.99R
MAPLE LAKE     DRIZZLE   55  53  94 N10       30.00R
$$
MNZ037-044-045-052-053-300100-
   East Central Minnesota

CITY           SKY/WX    TMP DP  RH WIND       PRES   REMARKS
PRINCETON      DRIZZLE   55  52  88 N14       29.99R
MORA           CLOUDY    52  48  87 N6        30.01R
CAMBRIDGE      LGT RAIN  55  48  76 N10G17    29.96S
RUSH CITY      LGT RAIN  55  53  93 N12G20    29.98R
MOOSE LAKE     CLOUDY    54  46  76 N13       29.99S
HINCKLEY       CLOUDY    54  52  94 N9        29.99R
CLOQUET        CLOUDY    54  46  76 NW16G25   30.01R
MCGREGOR       CLOUDY    54  45  71 N13       30.03S
$$
MNZ071>073-080-081-089-090-097-098-300100-
   Southwest Minnesota

CITY           SKY/WX    TMP DP  RH WIND       PRES   REMARKS
MONTEVIDEO     CLOUDY    54  50  87 N18G24    30.06R
GRANITE FALLS  CLOUDY    52  49  89 NW13      30.06R
CANBY          CLOUDY    48  44  84 N15G26    30.10R
MARSHALL       CLOUDY    48  41  76 N22G33    30.04R
REDWOOD FALLS  LGT RAIN  55  52  89 NW12      30.00R
OLIVIA         DRIZZLE   52  46  82 N14G21    30.01R
PIPESTONE      CLOUDY    48  45  87 N15G25    30.05R
WINDOM         DRIZZLE   52  52 100 NW22G28   29.99R
WORTHINGTON    CLOUDY    52  46  82 N25G32    30.01R
JACKSON        CLOUDY    54  54 100 NW22G33   29.98R FOG
TRACY          CLOUDY    50  48  95 N18G24    30.04R
SLAYTON        CLOUDY    48  47  99 N25       30.04R
$$
MNZ065>067-074>077-082>085-091>093-300100-
   South Central Minnesota

CITY           SKY/WX    TMP DP  RH WIND       PRES   REMARKS
MANKATO        CLOUDY    63  61  94 N13       29.92R
NEW ULM        CLOUDY    57  55  94 N15G24    29.95R
ST JAMES       CLOUDY    61  61 100 NW22G28   29.95R FOG
FAIRMONT       CLOUDY    61  55  82 NW15      29.92R
GLENCOE        LGT RAIN  57  56  96 N15G21    29.95R
FARIBAULT      HVY RAIN  64  63  94 N6        29.91R
OWATONNA       RAIN      64  63  94 N8        29.90R
WASECA         DRIZZLE   63  61  94 N13       29.91R
ALBERT LEA     CLOUDY    64  63  94 N8        29.89S
$$
MNZ078>079-086>088-094>096-300100-
   Southeast Minnesota

CITY           SKY/WX    TMP DP  RH WIND       PRES   REMARKS
ROCHESTER      CLOUDY    65  63  93 NE7       29.89F
6HR MIN TEMP:  64; 6HR MAX TEMP:  75; 6HR PCP:  0.23;

RED WING       LGT RAIN  66  64  94 N8        29.88R
STANTON        LGT RAIN  65  62  87 N9        29.89S
DODGE CENTER   DRIZZLE   66  63  88 NE7       29.89R
WINONA         HVY RAIN  66  64  94 CALM      29.89S
AUSTIN         LGT RAIN  64  63  94 SW12      29.88R
PRESTON        LGT RAIN  64  61  91 CALM      29.89S
$$
ABBREVIATIONS USED IN REMARKS
   TC - TEMPERATURES IN CELSIUS
  WCI - WIND CHILL INDEX
   HX - HEAT INDEX
  VSB - VISIBILITY
$$


USA.gov is the U.S. government's official web portal to all federal, state and local government web resources and services.